Regional Weather Roundup
Issued by NWS

Home | Current Version | Previous Version | Graphics & Text | Print | Product List | Glossary On
Versions: 1 2 3 4 5 6 7 8 9 10 11 12 13 14 15 16 17 18 19 20 21 22 23 24 25 26 27
000
ASUS45 KBOI 231310
RWRID

IDAHO REGIONAL WEATHER ROUNDUP
NATIONAL WEATHER SERVICE BOISE ID
700 AM MDT SAT JUL 23 2016

NOTE: "FAIR" INDICATES FEW OR NO CLOUDS BELOW 12000 FEET
WITH NO SIGNIFICANT WEATHER AND/OR OBSTRUCTIONS TO VISIBILITY

IDZ012-014-231400-
SOUTHWEST IDAHO


CITY           SKY/WX    TMP DP  RH WIND       PRES   REMARKS
BOISE          CLEAR     57  41  55 S3        30.15R
CALDWELL       NOT AVBL
MOUNTAIN HOME  CLEAR     62  39  43 NW14      30.15R
$$

IDZ016-017-231400-
SOUTHCENTRAL IDAHO


CITY           SKY/WX    TMP DP  RH WIND       PRES   REMARKS
BURLEY         CLEAR     58  42  55 SW8       30.17R
JEROME         CLEAR     58  42  55 SW10      30.19R
TWIN FALLS     CLEAR     60  36  40 S13       30.20R
$$

IDZ019>023-231400-
SOUTHEAST IDAHO


CITY           SKY/WX    TMP DP  RH WIND       PRES   REMARKS
IDAHO FALLS    CLEAR     53  39  59 SW9       30.18R
POCATELLO      CLEAR     60  38  43 SW15      30.20R
REXBURG        CLEAR     47  38  71 NE3       30.18R
$$

IDZ006-010-011-018-031-032-231400-
CENTRAL IDAHO MOUNTAINS


CITY           SKY/WX    TMP DP  RH WIND       PRES   REMARKS
MCCALL         CLEAR     54  37  52 N9        30.22R
HAILEY         PTCLDY    48  32  53 NW9       30.23R
STANLEY          N/A     34  30  85 S3        30.29R
SALMON         PTCLDY    54  37  54 S6        30.19S
CHALLIS        CLEAR     54  39  57 CALM      30.21R
$$

IDZ002-004-006-007-026-231400-
NORTHERN IDAHO


CITY           SKY/WX    TMP DP  RH WIND       PRES   REMARKS
LEWISTON       PTCLDY    60  47  61 S8        30.16R
LOWELL           N/A     55  50  83 N3        30.20R
COEUR D`ALENE  CLOUDY    54  52  94 SW6       30.15R VSB<1/4
MULLAN PASS    PTCLDY    46  42  86 VRB3      30.24R
$$




USA.gov is the U.S. government's official web portal to all federal, state and local government web resources and services.